Regional Weather Roundup
Issued by NWS Northern Indiana

Home | Current Version | Previous Version | Graphics & Text | Print | Product List | Glossary On
Versions: 1 2 3 4 5 6 7 8 9 10 11 12 13 14 15 16 17 18 19 20 21 22 23 24 25 26 27 28 29 30 31 32 33 34 35 36 37 38 39 40 41 42 43 44 45 46 47 48 49 50
000
ASUS43 KIWX 270710
RWRIWX

KIWX WEATHER ROUNDUP
NATIONAL WEATHER SERVICE NORTHERN INDIANA
200 AM EST SAT DEC 27 2014

NOTE: "FAIR" INDICATES FEW OR NO CLOUDS BELOW 12,000 FEET WITH NO
SIGNIFICANT WEATHER AND/OR OBSTRUCTIONS TO VISIBILITY.

* THESE STATIONS ARE NOT UNDER NWS QUALITY CONTROL. THEY ALSO MAY NOT
  REPORT WEATHER SUCH AS PRECIPITATION OR FOG.

INZ001>027-270800-
NORTHERN INDIANA

CITY           SKY/WX    TMP DP  RH WIND       PRES   REMARKS
GARY*          CLOUDY    48  40  72 S6        30.03S
VALPARAISO     CLOUDY    45  41  86 S7        30.06S
MICHIGAN CITY* CLOUDY    45  37  76 SW8       30.05F
LAPORTE*       CLOUDY    46  43  88 S6        30.06F
KNOX*          CLOUDY    44  38  77 S6        30.05F
SOUTH BEND     CLOUDY    47  42  83 S7        30.07F
GOSHEN         CLOUDY    46  41  82 S7        30.08S
MONTICELLO*    CLOUDY    47  42  84 S6        30.06F
LOGANSPORT*    CLOUDY    45  41  87 S5        30.09S
ROCHESTER*     CLOUDY    46  43  87 S6        30.08F
WARSAW*        CLOUDY    45  41  87 S5        30.09S
ANGOLA*        CLOUDY    45  39  81 S5        30.09S
FORT WAYNE     CLOUDY    44  39  82 S6        30.12S
HUNTINGTON*    CLOUDY    46  40  80 S7        30.10F
PERU/GRISSOM   CLOUDY    46  46 100 S8        30.08F
MARION*        CLOUDY    45  38  78 S9        30.11F

$$
INZ028>050-270800-
CENTRAL INDIANA

CITY           SKY/WX    TMP DP  RH WIND       PRES   REMARKS
LAFAYETTE      CLOUDY    48  41  76 S8        30.08S
KOKOMO*        CLOUDY    46  39  76 S9        30.09F
MUNCIE*        CLOUDY    47  37  68 S9        30.11F
INDIANAPOLIS   MOCLDY    44  37  76 S9        30.11R

$$
MIZ043>046-050>051-056>058-064>065-071>073-077>080-270800-
SOUTHWEST LOWER MICHIGAN

CITY           SKY/WX    TMP DP  RH WIND       PRES   REMARKS
BATTLE CREEK   CLOUDY    45  40  82 S9        30.08S
BENTON HARBOR  CLOUDY    45  41  86 S6        30.05S
COLDWATER*     CLOUDY    43  39  88 CALM      30.08S
HILLSDALE*     PTCLDY    41  40  95 S5        30.08S
HOLLAND        PTCLDY    43  38  82 S8        30.04F
GRAND RAPIDS   CLOUDY    45  40  82 S9        30.04S
KALAMAZOO      CLOUDY    44  40  85 S6        30.07S
STURGIS*       CLOUDY    43  39  87 S5        30.07F
THREE RIVERS*  CLOUDY    43  39  88 S6        30.08S

$$
OHZ001>008-015>018-024>025-270800-
NORTHWEST OHIO

CITY           SKY/WX    TMP DP  RH WIND       PRES   REMARKS
WAUSEON*       CLOUDY    45  39  81 SW7       30.11S
DEFIANCE       CLOUDY    46  38  73 SW8       30.12S
FINDLAY        CLOUDY    44  36  73 S12       30.13S
TOLEDO EXPRESS CLOUDY    43  37  79 S5        30.11F
TOLEDO METCALF CLOUDY    44  36  73 SW8       30.13S
LIMA           CLOUDY    47  36  65 SW10      30.14S

$$
AND FOR LAKE MICHIGAN COASTAL AND OPEN LAKE BUOY OBSERVATIONS

STATION/POSITION TEMP    WIND        PRES    VSBY  WAVE
                 AIR SEA DIR/SP/G                  HT/PER
                 (F)     (DEG/KT/KT) (MB)    (MI)  (FT/S)
CALUMET HARBOR    46     180/  8/ 13 1015.4F
MICHIGAN CITY     47     170/ 13/ 16   N/A
SAINT JOSEPH      47     130/  2/  6 1017.6S

$$
&&


USA.gov is the U.S. government's official web portal to all federal, state and local government web resources and services.